EFW8DD EGKK-LOWS

Flight info

Callsign EFW8DD
Flight time 1h 31m
Altitude 37000
Route DVR L9 KONAN UL607 SPI DCT GUBAX DCT BOREP DCT ARMUT T703 ARBAX T108 OSTES T700 BADIT BADIT2R
Aircraft A320/M-SDE3FGHIRWY/LB1

Departure

Time 2026-05-04 13:48
Airport London Gatwick Airport (EGKK)

Arrival

Time 2026-05-04 15:20
Airport Salzburg Airport (LOWS)
Time Latitude Longitude Altitude Speed Heading
2026-05-04 13:14 51.15532 -0.16601 214 ft 0 kts 348°
2026-05-04 13:35 51.15529 -0.16600 205 ft 3 kts 348°
2026-05-04 13:36 51.15512 -0.16594 214 ft 4 kts 345°
2026-05-04 13:36 51.15487 -0.16581 215 ft 4 kts 332°
2026-05-04 13:36 51.15468 -0.16557 217 ft 4 kts 283°
2026-05-04 13:36 51.15467 -0.16543 215 ft 0 kts 256°
2026-05-04 13:40 51.15466 -0.16546 205 ft 1 kts 256°
2026-05-04 13:41 51.15462 -0.16577 215 ft 4 kts 257°
2026-05-04 13:41 51.15452 -0.16642 209 ft 9 kts 257°
2026-05-04 13:41 51.15452 -0.16756 212 ft 12 kts 285°
2026-05-04 13:42 51.15420 -0.17047 205 ft 15 kts 257°
2026-05-04 13:42 51.15386 -0.17209 211 ft 13 kts 255°
2026-05-04 13:42 51.15362 -0.17327 209 ft 12 kts 252°
2026-05-04 13:42 51.15307 -0.17403 210 ft 11 kts 233°
2026-05-04 13:43 51.15290 -0.17531 205 ft 14 kts 258°
2026-05-04 13:43 51.15268 -0.17696 209 ft 17 kts 257°
2026-05-04 13:43 51.15240 -0.17896 211 ft 20 kts 257°
2026-05-04 13:43 51.15209 -0.18121 205 ft 20 kts 258°
2026-05-04 13:44 51.15185 -0.18343 216 ft 21 kts 260°
2026-05-04 13:44 51.15154 -0.18570 208 ft 21 kts 258°
2026-05-04 13:44 51.15121 -0.18807 205 ft 23 kts 257°
2026-05-04 13:44 51.15086 -0.19061 216 ft 24 kts 258°
2026-05-04 13:45 51.15051 -0.19314 209 ft 22 kts 258°
2026-05-04 13:45 51.15019 -0.19556 211 ft 23 kts 257°
2026-05-04 13:45 51.14983 -0.19810 214 ft 24 kts 257°
2026-05-04 13:45 51.14951 -0.20041 209 ft 22 kts 257°
2026-05-04 13:46 51.14917 -0.20284 205 ft 23 kts 258°
2026-05-04 13:46 51.14889 -0.20489 206 ft 17 kts 258°
2026-05-04 13:46 51.14857 -0.20639 216 ft 11 kts 216°
2026-05-04 13:46 51.14777 -0.20697 210 ft 14 kts 208°
2026-05-04 13:47 51.14704 -0.20719 211 ft 10 kts 169°
2026-05-04 13:47 51.14636 -0.20696 213 ft 9 kts 168°
2026-05-04 13:47 51.14595 -0.20640 210 ft 9 kts 94°
2026-05-04 13:47 51.14613 -0.20504 212 ft 20 kts 78°
2026-05-04 13:48 51.14695 -0.19908 210 ft 88 kts 78°
2026-05-04 13:48 51.14867 -0.18666 206 ft 140 kts 78°
2026-05-04 13:48 51.15095 -0.16992 422 ft 162 kts 78°
2026-05-04 13:48 51.15337 -0.15209 1088 ft 163 kts 78°
2026-05-04 13:49 51.15578 -0.13452 1619 ft 171 kts 77°
2026-05-04 13:49 51.15851 -0.11484 1891 ft 191 kts 77°
2026-05-04 13:49 51.16143 -0.09305 2165 ft 214 kts 77°
2026-05-04 13:49 51.16472 -0.06856 2494 ft 238 kts 78°
2026-05-04 13:50 51.16823 -0.04159 2961 ft 258 kts 81°
2026-05-04 13:50 51.16860 -0.01255 3763 ft 263 kts 91°
2026-05-04 13:50 51.16805 0.01666 4679 ft 265 kts 91°
2026-05-04 13:50 51.16747 0.04621 5509 ft 270 kts 91°
2026-05-04 13:51 51.16692 0.07630 6336 ft 274 kts 91°
2026-05-04 13:51 51.16636 0.10651 7084 ft 279 kts 92°
2026-05-04 13:51 51.16579 0.13771 7861 ft 283 kts 92°
2026-05-04 13:51 51.16529 0.16926 8661 ft 286 kts 91°
2026-05-04 13:52 51.16532 0.23332 10242 ft 293 kts 90°
2026-05-04 13:52 51.16549 0.26596 10945 ft 296 kts 90°
2026-05-04 13:52 51.16569 0.29920 11471 ft 307 kts 90°
2026-05-04 13:53 51.16583 0.33446 11632 ft 330 kts 90°
2026-05-04 13:53 51.16594 0.37173 11775 ft 350 kts 91°
2026-05-04 13:53 51.16598 0.41111 12234 ft 359 kts 91°
2026-05-04 13:54 51.16595 0.49167 13493 ft 368 kts 91°
2026-05-04 13:54 51.16591 0.53260 14101 ft 371 kts 91°
2026-05-04 13:54 51.16585 0.61538 15261 ft 376 kts 91°
2026-05-04 13:55 51.16582 0.65728 15831 ft 379 kts 91°
2026-05-04 13:55 51.16568 0.74124 16966 ft 384 kts 92°
2026-05-04 13:55 51.16556 0.78394 17559 ft 387 kts 92°
2026-05-04 13:56 51.16541 0.82703 18157 ft 390 kts 92°
2026-05-04 13:56 51.16527 0.87036 18708 ft 393 kts 92°
2026-05-04 13:56 51.16498 0.95835 19754 ft 400 kts 92°
2026-05-04 13:57 51.16478 1.00288 20295 ft 403 kts 92°
2026-05-04 13:57 51.16456 1.04776 20816 ft 407 kts 92°
2026-05-04 13:58 51.16389 1.18384 22202 ft 416 kts 92°
2026-05-04 13:58 51.16326 1.27654 23092 ft 422 kts 93°
2026-05-04 13:58 51.16291 1.32337 23524 ft 425 kts 93°
2026-05-04 13:59 51.16241 1.37055 23883 ft 427 kts 94°
2026-05-04 13:59 51.16101 1.41790 24240 ft 429 kts 96°
2026-05-04 13:59 51.15617 1.51241 24901 ft 433 kts 98°
2026-05-04 14:00 51.15337 1.56025 25250 ft 435 kts 98°
2026-05-04 14:00 51.14805 1.65668 25929 ft 439 kts 97°
2026-05-04 14:00 51.14562 1.70525 26272 ft 441 kts 97°
2026-05-04 14:01 51.14325 1.75411 26611 ft 443 kts 97°
2026-05-04 14:01 51.14086 1.80311 26950 ft 445 kts 97°
2026-05-04 14:01 51.13593 1.90174 27609 ft 449 kts 98°
2026-05-04 14:02 51.13336 1.95147 27921 ft 451 kts 98°
2026-05-04 14:02 51.13076 2.00064 28282 ft 452 kts 98°
2026-05-04 14:02 51.12811 2.05037 28762 ft 450 kts 98°
2026-05-04 14:02 51.12547 2.09996 29229 ft 449 kts 98°
2026-05-04 14:03 51.12286 2.14943 29705 ft 447 kts 98°
2026-05-04 14:03 51.12025 2.19863 30164 ft 446 kts 98°
2026-05-04 14:03 51.11760 2.24772 30562 ft 445 kts 98°
2026-05-04 14:03 51.11492 2.29670 30935 ft 444 kts 99°
2026-05-04 14:04 51.10951 2.39389 31657 ft 444 kts 99°
2026-05-04 14:04 51.10673 2.44294 32029 ft 444 kts 99°
2026-05-04 14:04 51.10395 2.49185 32403 ft 444 kts 100°
2026-05-04 14:05 51.09835 2.58961 33157 ft 444 kts 100°
2026-05-04 14:05 51.09525 2.63843 33526 ft 442 kts 104°
2026-05-04 14:05 51.08864 2.68568 33897 ft 436 kts 112°
2026-05-04 14:06 51.08019 2.73189 34212 ft 436 kts 111°
2026-05-04 14:06 51.07177 2.77827 34490 ft 436 kts 111°
2026-05-04 14:06 51.06352 2.82393 34770 ft 436 kts 111°
2026-05-04 14:06 51.05513 2.87032 35028 ft 436 kts 111°
2026-05-04 14:07 51.04687 2.91577 35294 ft 437 kts 111°
2026-05-04 14:07 51.03843 2.96207 35559 ft 437 kts 111°
2026-05-04 14:07 51.02993 3.00840 35812 ft 437 kts 111°
2026-05-04 14:07 51.02152 3.05408 36057 ft 437 kts 110°
2026-05-04 14:08 51.01297 3.10047 36297 ft 437 kts 110°
2026-05-04 14:08 51.00441 3.14677 36531 ft 438 kts 110°
2026-05-04 14:08 50.99583 3.19313 36764 ft 438 kts 110°
2026-05-04 14:08 50.98726 3.23942 36946 ft 439 kts 110°
2026-05-04 14:09 50.96984 3.33322 36983 ft 447 kts 110°
2026-05-04 14:10 50.94323 3.47519 36979 ft 450 kts 110°
2026-05-04 14:10 50.92531 3.57030 36977 ft 451 kts 110°
2026-05-04 14:11 50.90723 3.66542 36976 ft 450 kts 110°
2026-05-04 14:11 50.87984 3.80780 36967 ft 451 kts 111°
2026-05-04 14:12 50.86154 3.90206 36973 ft 451 kts 111°
2026-05-04 14:13 50.83370 4.04456 36992 ft 452 kts 111°
2026-05-04 14:13 50.81506 4.13955 37004 ft 452 kts 111°
2026-05-04 14:14 50.79643 4.23390 36993 ft 453 kts 111°
2026-05-04 14:14 50.76813 4.37623 37012 ft 453 kts 111°
2026-05-04 14:15 50.73014 4.56580 37014 ft 453 kts 111°
2026-05-04 14:16 50.70204 4.70801 36993 ft 453 kts 111°
2026-05-04 14:17 50.67472 4.85017 37000 ft 454 kts 111°
2026-05-04 14:18 50.64662 4.99259 37000 ft 454 kts 112°
2026-05-04 14:19 50.60740 5.18078 36985 ft 454 kts 112°
2026-05-04 14:19 50.58777 5.27539 36993 ft 455 kts 112°
2026-05-04 14:20 50.56808 5.37016 36998 ft 455 kts 112°
2026-05-04 14:20 50.54821 5.46469 37000 ft 455 kts 112°
2026-05-04 14:21 50.51857 5.60584 36986 ft 457 kts 110°
2026-05-04 14:21 50.50742 5.70482 36983 ft 462 kts 102°
2026-05-04 14:22 50.49865 5.80491 36993 ft 462 kts 102°
2026-05-04 14:22 50.48976 5.90493 37002 ft 463 kts 102°
2026-05-04 14:23 50.47605 6.05491 36984 ft 463 kts 102°
2026-05-04 14:24 50.46686 6.15417 36991 ft 463 kts 102°
2026-05-04 14:24 50.45758 6.25430 36995 ft 464 kts 102°
2026-05-04 14:25 50.44820 6.35442 36987 ft 464 kts 102°
2026-05-04 14:25 50.43389 6.50463 36988 ft 464 kts 102°
2026-05-04 14:26 50.42433 6.60407 36989 ft 465 kts 102°
2026-05-04 14:26 50.41458 6.70428 37009 ft 465 kts 102°
2026-05-04 14:27 50.40479 6.80455 37013 ft 465 kts 102°
2026-05-04 14:27 50.39490 6.90476 37024 ft 465 kts 103°
2026-05-04 14:28 50.38490 7.00482 37010 ft 465 kts 103°
2026-05-04 14:28 50.37480 7.10485 37013 ft 466 kts 103°
2026-05-04 14:29 50.35442 7.30472 37010 ft 466 kts 103°
2026-05-04 14:30 50.34407 7.40498 36990 ft 467 kts 103°
2026-05-04 14:31 50.32837 7.55541 36999 ft 467 kts 103°
2026-05-04 14:32 50.30708 7.75576 37008 ft 467 kts 103°
2026-05-04 14:32 50.29632 7.85597 36987 ft 467 kts 103°
2026-05-04 14:33 50.28544 7.95606 36994 ft 467 kts 103°
2026-05-04 14:33 50.27468 8.05560 37000 ft 467 kts 103°
2026-05-04 14:34 50.26384 8.15570 37004 ft 467 kts 103°
2026-05-04 14:34 50.25292 8.25576 37004 ft 467 kts 103°
2026-05-04 14:35 50.24186 8.35584 36994 ft 467 kts 103°
2026-05-04 14:35 50.23070 8.45586 36992 ft 467 kts 103°
2026-05-04 14:36 50.21954 8.55507 36993 ft 467 kts 104°
2026-05-04 14:36 50.20819 8.65505 36995 ft 467 kts 104°
2026-05-04 14:37 50.19683 8.75493 37000 ft 468 kts 104°
2026-05-04 14:37 50.18531 8.85480 37001 ft 467 kts 104°
2026-05-04 14:38 50.17371 8.95458 37000 ft 467 kts 104°
2026-05-04 14:38 50.16218 9.05358 37001 ft 467 kts 104°
2026-05-04 14:39 50.15043 9.15319 37001 ft 467 kts 104°
2026-05-04 14:39 50.13858 9.25278 36989 ft 467 kts 104°
2026-05-04 14:40 50.12067 9.40226 36993 ft 468 kts 104°
2026-05-04 14:40 50.10869 9.50183 36996 ft 468 kts 104°
2026-05-04 14:41 50.09645 9.60136 36990 ft 468 kts 104°
2026-05-04 14:42 50.07199 9.79973 36979 ft 468 kts 104°
2026-05-04 14:42 50.05960 9.89925 36980 ft 468 kts 104°
2026-05-04 14:43 50.04710 9.99870 36973 ft 468 kts 104°
2026-05-04 14:43 50.03449 10.09811 36956 ft 468 kts 104°
2026-05-04 14:44 50.02188 10.19670 36961 ft 468 kts 104°
2026-05-04 14:44 50.00910 10.29602 36973 ft 468 kts 104°
2026-05-04 14:45 49.99619 10.39517 36978 ft 468 kts 104°
2026-05-04 14:45 49.98329 10.49445 36984 ft 469 kts 104°
2026-05-04 14:46 49.97031 10.59363 36966 ft 468 kts 104°
2026-05-04 14:46 49.95715 10.69275 36989 ft 468 kts 104°
2026-05-04 14:47 49.94376 10.79090 36997 ft 468 kts 105°
2026-05-04 14:47 49.93005 10.88967 36998 ft 468 kts 105°
2026-05-04 14:48 49.91635 10.98829 37000 ft 468 kts 105°
2026-05-04 14:48 49.90261 11.08700 36995 ft 468 kts 105°
2026-05-04 14:49 49.88893 11.18497 36997 ft 468 kts 105°
2026-05-04 14:49 49.87498 11.28365 36998 ft 468 kts 105°
2026-05-04 14:50 49.86092 11.38222 36999 ft 469 kts 105°
2026-05-04 14:50 49.84682 11.48086 36994 ft 469 kts 105°
2026-05-04 14:51 49.83276 11.57871 37005 ft 468 kts 105°
2026-05-04 14:51 49.81847 11.67717 37021 ft 468 kts 105°
2026-05-04 14:52 49.80409 11.77551 37032 ft 468 kts 105°
2026-05-04 14:52 49.78972 11.87387 37034 ft 468 kts 105°
2026-05-04 14:53 49.77533 11.97143 37042 ft 468 kts 105°
2026-05-04 14:53 49.76069 12.06954 37039 ft 468 kts 105°
2026-05-04 14:54 49.74601 12.16754 37029 ft 468 kts 105°
2026-05-04 14:54 49.72852 12.26409 36978 ft 464 kts 116°
2026-05-04 14:55 49.69500 12.34708 36966 ft 456 kts 135°
2026-05-04 14:55 49.64775 12.41073 36968 ft 450 kts 146°
2026-05-04 14:56 49.59768 12.46904 36971 ft 451 kts 146°
2026-05-04 14:56 49.54762 12.52727 36977 ft 451 kts 146°
2026-05-04 14:57 49.49743 12.58541 36975 ft 452 kts 146°
2026-05-04 14:57 49.44751 12.64306 36966 ft 452 kts 146°
2026-05-04 14:58 49.40076 12.70802 36976 ft 454 kts 139°
2026-05-04 14:58 49.35617 12.77684 36976 ft 457 kts 133°
2026-05-04 14:59 49.31548 12.85183 36969 ft 457 kts 133°
2026-05-04 14:59 49.27486 12.92587 36572 ft 455 kts 136°
2026-05-04 15:00 49.25129 12.95736 36307 ft 448 kts 150°
2026-05-04 15:00 49.22406 12.97980 35815 ft 442 kts 163°
2026-05-04 15:00 49.19453 12.99203 35002 ft 439 kts 176°
2026-05-04 15:01 49.13441 12.98484 33078 ft 436 kts 201°
2026-05-04 15:01 49.10644 12.96708 32046 ft 437 kts 208°
2026-05-04 15:01 49.07883 12.94710 31150 ft 439 kts 208°
2026-05-04 15:01 49.05123 12.92707 30212 ft 441 kts 208°
2026-05-04 15:02 49.02380 12.90706 29116 ft 444 kts 207°
2026-05-04 15:02 48.99617 12.88696 28613 ft 435 kts 207°
2026-05-04 15:02 48.96902 12.86724 27960 ft 430 kts 207°
2026-05-04 15:02 48.94214 12.84775 27316 ft 426 kts 207°
2026-05-04 15:03 48.91555 12.82860 26688 ft 422 kts 207°
2026-05-04 15:03 48.88914 12.80969 26050 ft 418 kts 207°
2026-05-04 15:03 48.86293 12.79097 25428 ft 414 kts 207°
2026-05-04 15:03 48.83685 12.77236 24523 ft 414 kts 207°
2026-05-04 15:04 48.81099 12.75392 23497 ft 407 kts 207°
2026-05-04 15:04 48.78591 12.73605 22353 ft 401 kts 207°
2026-05-04 15:04 48.76090 12.71824 21250 ft 394 kts 206°
2026-05-04 15:04 48.73591 12.70106 20501 ft 394 kts 202°
2026-05-04 15:05 48.70962 12.69009 19990 ft 392 kts 191°
2026-05-04 15:05 48.68245 12.68713 19466 ft 392 kts 180°
2026-05-04 15:05 48.65541 12.69203 18938 ft 392 kts 172°
2026-05-04 15:05 48.62859 12.69911 18404 ft 391 kts 172°
2026-05-04 15:06 48.60185 12.70614 17817 ft 389 kts 172°
2026-05-04 15:06 48.57522 12.71269 17268 ft 385 kts 173°
2026-05-04 15:06 48.54884 12.71847 16724 ft 381 kts 174°
2026-05-04 15:07 48.49708 12.72894 15618 ft 375 kts 174°
2026-05-04 15:07 48.47130 12.73417 15041 ft 372 kts 174°
2026-05-04 15:07 48.44579 12.73944 14485 ft 369 kts 174°
2026-05-04 15:07 48.42043 12.74476 13904 ft 366 kts 173°
2026-05-04 15:08 48.39534 12.75047 13292 ft 364 kts 170°
2026-05-04 15:08 48.37083 12.75931 12729 ft 359 kts 168°
2026-05-04 15:08 48.34701 12.76802 12161 ft 355 kts 168°
2026-05-04 15:08 48.32310 12.77675 11602 ft 352 kts 168°
2026-05-04 15:09 48.29944 12.78539 11043 ft 348 kts 168°
2026-05-04 15:09 48.27602 12.79393 10573 ft 343 kts 168°
2026-05-04 15:09 48.25336 12.80215 10444 ft 328 kts 168°
2026-05-04 15:10 48.21082 12.81764 10200 ft 302 kts 168°
2026-05-04 15:10 48.19077 12.82495 10085 ft 291 kts 168°
2026-05-04 15:10 48.15245 12.83876 9787 ft 278 kts 169°
2026-05-04 15:11 48.13391 12.84540 9490 ft 278 kts 168°
2026-05-04 15:11 48.11510 12.85216 9118 ft 277 kts 168°
2026-05-04 15:11 48.09637 12.85892 8742 ft 277 kts 168°
2026-05-04 15:11 48.07759 12.86572 8361 ft 278 kts 168°
2026-05-04 15:12 48.05877 12.87253 7969 ft 278 kts 168°
2026-05-04 15:12 48.03994 12.87937 7592 ft 279 kts 167°
2026-05-04 15:12 48.02151 12.88798 7207 ft 275 kts 156°
2026-05-04 15:12 48.00563 12.90293 6764 ft 269 kts 140°
2026-05-04 15:13 47.99355 12.92358 6283 ft 266 kts 122°
2026-05-04 15:13 47.98614 12.94826 5896 ft 258 kts 106°
2026-05-04 15:13 47.98295 12.97413 5496 ft 249 kts 103°
2026-05-04 15:13 47.97569 12.99721 5123 ft 249 kts 129°
2026-05-04 15:14 47.96258 13.01410 4809 ft 250 kts 150°
2026-05-04 15:14 47.94700 13.02287 4889 ft 232 kts 167°
2026-05-04 15:14 47.93171 13.02742 4968 ft 221 kts 167°
2026-05-04 15:14 47.91678 13.03200 4998 ft 219 kts 167°
2026-05-04 15:15 47.90204 13.03655 4997 ft 210 kts 167°
2026-05-04 15:15 47.88834 13.04078 5005 ft 199 kts 167°
2026-05-04 15:15 47.87484 13.04495 5051 ft 199 kts 167°
2026-05-04 15:16 47.84830 13.05308 4420 ft 182 kts 167°
2026-05-04 15:16 47.83635 13.05673 4189 ft 170 kts 166°
2026-05-04 15:16 47.81418 13.06348 3766 ft 158 kts 167°
2026-05-04 15:17 47.80343 13.06678 3550 ft 157 kts 167°
2026-05-04 15:17 47.78224 13.07326 3128 ft 156 kts 165°
2026-05-04 15:17 47.77157 13.07634 2906 ft 156 kts 173°
2026-05-04 15:18 47.76102 13.07293 2682 ft 160 kts 211°
2026-05-04 15:18 47.75353 13.06102 2484 ft 160 kts 244°
2026-05-04 15:18 47.75161 13.04501 2259 ft 158 kts 282°
2026-05-04 15:19 47.76477 13.02172 1869 ft 151 kts 340°
2026-05-04 15:19 47.77446 13.01589 1662 ft 150 kts 339°
2026-05-04 15:19 47.79254 13.00450 1421 ft 112 kts 336°
2026-05-04 15:20 47.79745 13.00139 1421 ft 59 kts 336°
2026-05-04 15:20 47.80059 12.99938 1419 ft 36 kts 336°
2026-05-04 15:20 47.80220 12.99838 1420 ft 20 kts 337°
2026-05-04 15:20 47.80281 12.99728 1422 ft 13 kts 263°
2026-05-04 15:21 47.80246 12.99610 1424 ft 13 kts 225°
2026-05-04 15:21 47.80159 12.99605 1422 ft 15 kts 158°
2026-05-04 15:21 47.79942 12.99744 1422 ft 19 kts 158°
2026-05-04 15:22 47.79813 12.99826 1422 ft 20 kts 156°
2026-05-04 15:22 47.79680 12.99911 1422 ft 21 kts 155°
2026-05-04 15:22 47.79435 13.00064 1422 ft 13 kts 157°
2026-05-04 15:23 47.79371 13.00087 1422 ft 8 kts 206°
2026-05-04 15:23 47.79340 13.00005 1422 ft 10 kts 247°
2026-05-04 15:23 47.79297 12.99943 1422 ft 9 kts 184°
2026-05-04 15:23 47.79234 12.99977 1422 ft 11 kts 157°
2026-05-04 15:24 47.79078 13.00076 1422 ft 9 kts 156°
2026-05-04 15:24 47.79023 13.00061 1422 ft 5 kts 272°
2026-05-04 15:25 47.79029 13.00014 1422 ft 3 kts 281°
2026-05-04 15:25 47.79029 13.00010 1422 ft 0 kts 281°